Cheraw, SC

2:13 PM EST on December 15, 2017 (GMT -0500)
Cheraw

Weather History for KCQW - July, 2013

Change the Weather History Date:

Monday, July 22, 2013

  Actual Average (KFLO) Record (KFLO)
Temperature  
Mean Temperature 79 °F -  
Max Temperature 87 °F 91 °F 102 °F (1952)
Min Temperature 71 °F 71 °F 62 °F (1965)
Cooling Degree Days 14    
Growing Degree Days 29 (Base 50)    
Moisture  
Dew Point 72 °F    
Average Humidity 84    
Maximum Humidity 100    
Minimum Humidity 62    
Precipitation  
Precipitation 0.00 in - - ()
Sea Level Pressure  
Sea Level Pressure 29.93 in    
Wind  
Wind Speed - (North)    
Max Wind Speed -    
Max Gust Speed -    
Averages and records for this station are not official NWS values.
T = Trace of Precipitation, MM = Missing Value Source: NWS Daily Summary

Daily Weather History Graph

Daily Weather History Graph

Search for Another Location

Airport or City:

Trip Planner

Search our weather history database for the weather conditions in past years. The results will help you decide how hot, cold, wet, or windy it might be!

Date:

Astronomy

Jul. 22, 2013 Rise Set
Actual Time 6:22 AM EDT 8:29 PM EDT
Civil Twilight 5:54 AM EDT 8:57 PM EDT
Nautical Twilight 5:19 AM EDT 9:32 PM EDT
Astronomical Twilight 4:42 AM EDT 10:09 PM EDT
Moon 8:18 PM EDT (7/22) 6:14 AM EDT (7/22)
Length of Visible Light 15h 03m
Length of Day
14h 06m
Full, 100% of the Moon is Illuminated
Jul 22
Full
Jul 22
Full
Jul 29
Last Quarter
Aug 6
New
Aug 14
First Quarter

Hourly Weather History & Observations

Time (EDT) Temp. Heat Index Dew Point Humidity Pressure Visibility Wind Dir Wind Speed Gust Speed Precip Events Conditions
12:15 AM 73.4 °F - 73.4 °F 100% 29.98 in - North - - N/A Rain Light Rain
12:35 AM 73.4 °F - 73.4 °F 100% 29.98 in - North - - N/A Rain Light Rain
12:55 AM 73.4 °F - 73.4 °F 100% 29.97 in - North - - N/A Rain Light Rain
1:15 AM 71.6 °F - 71.6 °F 100% 29.97 in - North - - N/A Rain Light Rain
1:35 AM 71.6 °F - 71.6 °F 100% 29.96 in - North - - N/A Rain Light Rain
1:55 AM 71.6 °F - 71.6 °F 100% 29.95 in - North - - N/A Rain Light Rain
2:15 AM 71.6 °F - 71.6 °F 100% 29.94 in - North - - N/A Rain Light Rain
2:35 AM 71.6 °F - 71.6 °F 100% 29.94 in - North - - N/A Rain Light Rain
2:55 AM 71.6 °F - 71.6 °F 100% 29.93 in - North - - N/A Rain Light Rain
3:15 AM 71.6 °F - 71.6 °F 100% 29.93 in - North - - N/A Rain Light Rain
3:35 AM 71.6 °F - 71.6 °F 100% 29.93 in - North - - N/A Rain Light Rain
3:55 AM 71.6 °F - 71.6 °F 100% 29.93 in - North - - N/A Rain Light Rain
4:15 AM 71.6 °F - 71.6 °F 100% 29.93 in - North - - N/A Rain Light Rain
4:35 AM 71.6 °F - 71.6 °F 100% 29.93 in - North - - N/A Rain Light Rain
4:55 AM 71.6 °F - 71.6 °F 100% 29.93 in - North - - N/A Rain Light Rain
5:15 AM 71.6 °F - 71.6 °F 100% 29.93 in - North - - N/A Rain Light Rain
5:35 AM 71.6 °F - 71.6 °F 100% 29.94 in - North - - N/A Rain Light Rain
5:55 AM 71.6 °F - 71.6 °F 100% 29.95 in - North - - N/A Rain Light Rain
6:15 AM 71.6 °F - 71.6 °F 100% 29.95 in - North - - N/A Rain Light Rain
6:35 AM 71.6 °F - 71.6 °F 100% 29.96 in - North - - N/A Rain Light Rain
6:55 AM 71.6 °F - 71.6 °F 100% 29.96 in - North - - N/A Rain Light Rain
7:15 AM 71.6 °F - 71.6 °F 100% 29.96 in - North - - N/A Rain Light Rain
7:35 AM 71.6 °F - 71.6 °F 100% 29.96 in - North - - N/A Rain Light Rain
7:55 AM 73.4 °F - 73.4 °F 100% 29.97 in - North - - N/A Rain Light Rain
8:15 AM 73.4 °F - 73.4 °F 100% 29.97 in - North - - N/A Rain Light Rain
8:35 AM 73.4 °F - 73.4 °F 100% 29.97 in - North - - N/A Rain Light Rain
8:55 AM 73.4 °F - 73.4 °F 100% 29.98 in - North - - N/A Rain Light Rain
9:15 AM 75.2 °F - 73.4 °F 94% 29.98 in - North - - N/A Rain Light Rain
9:35 AM 75.2 °F - 73.4 °F 94% 29.98 in - North - - N/A Rain Light Rain
9:55 AM 75.2 °F - 73.4 °F 94% 29.98 in - North - - N/A Rain Light Rain
10:55 AM 78.8 °F - 73.4 °F 83% 29.98 in - North - - N/A Rain Light Rain
11:15 AM 80.6 °F 85.4 °F 73.4 °F 79% 29.98 in - North - - N/A Rain Light Rain
11:35 AM 80.6 °F 85.4 °F 73.4 °F 79% 29.97 in - North - - N/A Rain Light Rain
11:55 AM 80.6 °F 85.4 °F 73.4 °F 79% 29.97 in - North - - N/A Rain Light Rain
12:15 PM 82.4 °F 88.2 °F 73.4 °F 74% 29.97 in - North - - N/A Rain Light Rain
12:35 PM 82.4 °F 88.2 °F 73.4 °F 74% 29.97 in - North - - N/A Rain Light Rain
12:55 PM 82.4 °F 88.2 °F 73.4 °F 74% 29.97 in - North - - N/A Rain Light Rain
1:15 PM 84.2 °F 90.9 °F 73.4 °F 70% 29.96 in - North - - N/A Rain Light Rain
1:35 PM 84.2 °F 90.9 °F 73.4 °F 70% 29.96 in - North - - N/A Rain Light Rain
1:55 PM 82.4 °F 88.2 °F 73.4 °F 74% 29.95 in - North - - N/A Rain Light Rain
2:15 PM 82.4 °F 88.2 °F 73.4 °F 74% 29.95 in - North - - N/A Rain Light Rain
2:35 PM 84.2 °F 90.9 °F 73.4 °F 70% 29.93 in - North - - N/A Rain Light Rain
2:55 PM 84.2 °F 90.9 °F 73.4 °F 70% 29.93 in - North - - N/A Rain Light Rain
3:15 PM 84.2 °F 90.9 °F 73.4 °F 70% 29.92 in - North - - N/A Rain Light Rain
3:35 PM 86.0 °F 93.4 °F 73.4 °F 66% 29.91 in - North - - N/A Rain Light Rain
3:55 PM 87.8 °F 95.6 °F 73.4 °F 62% 29.90 in - North - - N/A Rain Light Rain
4:15 PM 86.0 °F 93.4 °F 73.4 °F 66% 29.90 in - North - - N/A Rain Light Rain
4:35 PM 86.0 °F 91.8 °F 71.6 °F 62% 29.90 in - North - - N/A Rain Light Rain
4:55 PM 86.0 °F 91.8 °F 71.6 °F 62% 29.89 in - North - - N/A Rain Light Rain
5:15 PM 86.0 °F 91.8 °F 71.6 °F 62% 29.89 in - North - - N/A Rain Light Rain
5:35 PM 86.0 °F 91.8 °F 71.6 °F 62% 29.88 in - North - - N/A Rain Light Rain
5:55 PM 86.0 °F 91.8 °F 71.6 °F 62% 29.88 in - North - - N/A Rain Light Rain
6:15 PM 86.0 °F 91.8 °F 71.6 °F 62% 29.87 in - North - - N/A Rain Light Rain
6:35 PM 86.0 °F 91.8 °F 71.6 °F 62% 29.87 in - North - - N/A Rain Light Rain
6:55 PM 86.0 °F 91.8 °F 71.6 °F 62% 29.87 in - North - - N/A Rain Light Rain
7:15 PM 84.2 °F 90.9 °F 73.4 °F 70% 29.87 in - North - - N/A Rain Light Rain
7:35 PM 84.2 °F 90.9 °F 73.4 °F 70% 29.87 in - North - - N/A Rain Light Rain
7:55 PM 82.4 °F 88.2 °F 73.4 °F 74% 29.86 in - North - - N/A Rain Light Rain
8:15 PM 82.4 °F 88.2 °F 73.4 °F 74% 29.86 in - North - - N/A Rain Light Rain
8:35 PM 80.6 °F 84.6 °F 71.6 °F 74% 29.86 in - North - - N/A Rain Light Rain
8:55 PM 78.8 °F - 71.6 °F 78% 29.86 in - North - - N/A Rain Light Rain
9:15 PM 78.8 °F - 71.6 °F 78% 29.87 in - North - - N/A Rain Light Rain
9:35 PM 77.0 °F - 73.4 °F 89% 29.88 in - North - - N/A Rain Light Rain
9:55 PM 77.0 °F - 71.6 °F 83% 29.88 in - North - - N/A Rain Light Rain
10:15 PM 77.0 °F - 71.6 °F 83% 29.89 in - North - - N/A Rain Light Rain
10:35 PM 77.0 °F - 71.6 °F 83% 29.88 in - North - - N/A Rain Light Rain
10:55 PM 77.0 °F - 71.6 °F 83% 29.89 in - North - - N/A Rain Light Rain
11:15 PM 77.0 °F - 71.6 °F 83% 29.89 in - North - - N/A Rain Light Rain
11:35 PM 77.0 °F - 71.6 °F 83% 29.88 in - North - - N/A Rain Light Rain
11:55 PM 77.0 °F - 71.6 °F 83% 29.88 in - North - - N/A Rain Light Rain